Miscellaneous Local Product
Issued by NWS Hastings, NE

Home | Current Version | Previous Version | Text Only | Print | Product List | Glossary On
Versions: 1 2 3 4 5 6 7 8 9 10 11 12 13 14 15 16 17 18 19 20 21 22 23 24 25 26 27 28 29 30 31 32 33 34 35 36 37 38 39 40 41 42 43 44 45 46 47 48 49 50
000
AXUS43 KGID 191402
MISGRI

GID CWA HOURLY WEATHER ROUNDUP
NATIONAL WEATHER SERVICE HASTINGS NE
900 AM CDT TUE SEP 19 2017

NOTE: "FAIR" INDICATES FEW OR NO CLOUDS BELOW 12,000 FEET WITH NO
SIGNIFICANT WEATHER AND/OR OBSTRUCTIONS TO VISIBILITY.

...SOUTH CENTRAL NEBRASKA...

CITY           SKY/WX    TMP DP  RH WIND       PRES   REMARKS
GRAND ISLAND   SUNNY     66  65  96 S16       29.73F
HASTINGS       SUNNY     67  63  87 SE9       29.74F
KEARNEY        SUNNY     66  64  93 SE14      29.71F
ORD            MOSUNNY   62  61  96 SE9       29.69F FOG
YORK           SUNNY     68  66  94 SE8       29.77F
LEXINGTON      SUNNY     68  65  90 S12       29.69S FOG
HOLDREGE       SUNNY     67  64  89 SE13G20   29.70F
HEBRON         SUNNY     72  66  83 S9G16     29.77F

...NEBRASKA PANHANDLE...

CITY           SKY/WX    TMP DP  RH WIND       PRES   REMARKS
CHADRON        CLOUDY    63  46  54 SW7       29.58F
ALLIANCE       CLOUDY    56  53  90 S9        29.63F
SCOTTSBLUFF    CLOUDY    54  51  90 SE8       29.65S
SIDNEY         CLOUDY    53  49  86 SW7       29.68F

...WESTERN AND NORTH CENTRAL NEBRASKA...

CITY           SKY/WX    TMP DP  RH WIND       PRES   REMARKS
VALENTINE      CLOUDY    70  61  73 S18G24    29.61F
AINSWORTH      CLOUDY    64  62  94 S12       29.65F
ONEILL         CLOUDY    64  64 100 SE13      29.71F FOG
BROKEN BOW     CLOUDY    63  61  93 E5        29.69F
IMPERIAL       CLOUDY    63  59  87 S13       29.67F
NORTH PLATTE   CLOUDY    67  64  90 SE9       29.66F
MCCOOK           N/A     68  65  90 S9        29.67S

...EASTERN NEBRASKA...

CITY           SKY/WX    TMP DP  RH WIND       PRES   REMARKS
NORFOLK        CLOUDY    66  66 100 SE14      29.75F
SO SIOUX CITY  CLOUDY    67  67 100 SE12      29.79F FOG
TEKAMAH        CLOUDY    68  66  93 SE9       29.80F FOG
COLUMBUS       SUNNY     68  65  90 SE9       29.77F
ALBION         CLOUDY    64  64  99 SE9       29.74F FOG
OMAHA EPPLEY   CLOUDY    69  65  86 SE12      29.83S FOG
OFFUTT AFB     CLOUDY    69  66  92 SE12      29.82F
MILLARD        CLOUDY    69  68  94 SE12      29.82F FOG
LINCOLN        SUNNY     71  66  84 SE12      29.80F
NEBRASKA CITY  CLOUDY    68  68 100 SE9       29.84S FOG
BEATRICE       SUNNY     71  67  87 SE13G18   29.80F
FALLS CITY     PTSUNNY   71  67  87 SE12      29.84S

...NORTHERN KANSAS...

CITY           SKY/WX    TMP DP  RH WIND       PRES   REMARKS
GOODLAND       SUNNY     61  58  90 SW8       29.71S
HILL CITY      SUNNY     70  64  81 S14       29.72F
NORTON         SUNNY     68  59  73 SE10G16   29.70S
PHILLIPSBURG   SUNNY     68  66  94 E8        29.72F
SMITH CENTER   SUNNY     66  63  88 SE12      29.74F
HAYS           SUNNY     73  63  70 S15G22    29.73F
RUSSELL        SUNNY     72  63  73 S24       29.73F
CONCORDIA      SUNNY     72  66  81 S17       29.77F
SALINA         SUNNY     77  65  66 S17G28    29.77F
TOPEKA         SUNNY     72  68  87 SE7       29.85F



USA.gov is the U.S. government's official web portal to all federal, state and local government web resources and services.